RH
45 55 55 52 51 50 51 56 59 60 68 74 74 73 76 74 71 71 64 63 61 62 68 74 74 76 78 78 75 80 84 85 86 93 84 92 84 74 76 79 88 91 93
54 58 59 54 53 58 59 59 58 62 69 75 75 75 77 77 80 76 65 61 61 65 62 75 79 78 81 79 81 83 89 89 87 95 96 93 84 74 68 72 77 76 91
58 61 59 64 68 62 62 59 62 61 66 67 74 73 76 77 73 71 72 69 63 68 72 75 79 80 83 86 85 86 86 94 90 87 92 88 91 80 79 68 82 75 83
57 60 61 69 66 67 65 62 59 58 58 63 69 73 79 77 75 77 75 73 66 68 76 73 74 80 84 84 87 76 87 91 94 89 76 85 84 88 89 82 84 70 72
57 59 62 58 66 69 70 64 60 59 60 63 66 77 77 80 79 77 72 70 71 70 72 72 75 77 83 84 83 84 87 90 92 92 90 88 88 91 90 94 82 69 67
57 56 56 60 69 75 70 65 60 59 59 63 64 69 72 76 75 74 76 75 75 74 70 67 74 75 76 78 81 82 84 86 89 89 88 88 89 89 91 95 91 89 83
56 58 58 64 68 72 69 61 62 59 58 62 63 65 68 70 72 72 75 74 76 76 72 70 74 75 74 73 76 78 80 84 89 89 87 84 83 81 81 86 90 95 83
51 57 59 63 67 66 65 58 61 60 59 61 60 63 64 71 73 71 74 75 75 75 69 70 69 67 67 68 70 77 78 77 82 83 84 86 84 81 80 82 89 91 91
52 54 57 62 66 66 64 62 61 60 59 59 62 61 65 66 69 66 70 72 70 61 64 67 66 65 65 64 66 72 72 76 79 80 84 85 82 82 80 79 81 84 93
52 54 57 62 62 62 63 64 60 59 58 59 60 58 64 63 65 67 66 66 67 64 64 65 64 64 62 63 66 70 68 67 74 70 74 77 80 80 82 80 77 81 84
55 51 55 58 57 60 63 62 61 56 56 58 58 61 64 63 64 67 66 65 62 58 52 52 57 56 57 59 64 67 62 69 71 70 70 71 72 77 80 81 76 74 79
53 51 52 54 56 58 60 60 57 56 54 56 57 59 62 64 67 62 53 46 44 43 43 44 45 46 48 50 52 61 70 76 79 77 74 72 60 75 77 82 80 78 76
43 44 46 52 52 55 56 56 54 52 52 53 55 57 59 64 62 53 43 39 41 43 44 44 46 46 47 49 50 57 57 74 80 80 78 76 77 79 81 81 83 83 69
48 47 47 46 48 53 53 54 52 51 52 51 51 52 51 52 51 44 41 41 42 44 44 46 46 47 47 48 51 53 60 70 72 75 76 77 78 80 81 78 82 74 84
54 54 54 53 50 52 54 51 51 52 49 48 46 45 44 42 43 42 43 44 44 42 45 46 46 48 47 42 49 54 62 72 74 72 66 67 73 77 78 77 87 88 91
53 55 56 58 57 58 53 50 54 52 48 46 47 46 42 39 40 43 45 47 47 46 46 45 48 55 43 53 60 66 66 68 75 72 66 65 70 68 66 74 79 85 92
58 61 66 68 67 63 56 56 55 55 53 49 46 43 41 40 41 42 46 48 50 51 51 50 49 49 49 52 59 64 72 73 75 75 69 60 48 66 69 68 69 78 73
62 67 71 69 65 64 62 62 60 56 55 57 54 48 45 47 48 48 50 53 54 55 55 53 50 51 46 58 61 63 68 75 72 72 70 67 59 62 67 72 84 88 89
68 70 73 71 71 66 62 60 60 62 60 58 56 53 49 52 57 63 62 60 60 59 58 54 54 55 51 57 64 63 67 72 67 57 62 62 59 56 58 81 84 88 85
68 70 72 69 71 70 64 62 62 64 64 62 63 61 65 69 69 68 67 64 62 57 60 54 56 57 57 58 61 60 63 70 61 62 62 60 59 58 63 73 87 90 79
58 60 66 72 70 65 67 71 72 72 66 69 67 66 68 68 68 69 67 61 60 60 60 57 52 57 52 52 56 61 56 60 58 57 55 52 55 56 57 63 83 84 81
48 46 53 54 56 58 64 66 69 60 67 69 58 55 57 51 43 59 56 56 58 62 60 59 58 53 52 54 55 58 63 60 66 63 58 59 61 66 68 64 66 67 74
38 42 43 45 47 52 55 59 50 53 48 51 50 49 48 44 45 57 54 55 49 56 54 53 53 53 49 55 55 54 57 59 61 60 66 69 71 73 73 71 70 70 78
34 33 36 37 41 42 42 50 48 44 46 50 51 52 56 52 50 48 49 55 51 49 47 46 50 51 52 62 62 57 58 59 61 64 78 70 66 67 71 77 82 88 91
35 35 38 41 42 40 42 40 37 43 47 46 45 47 48 50 49 48 48 45 44 46 45 48 51 56 59 53 54 58 60 66 69 69 75 82 82 81 71 71 78 83 86
41 43 45 48 42 41 41 40 42 49 52 51 49 50 51 52 54 57 55 58 62 62 63 64 64 58 62 66 68 70 72 69 68 73 81 82 74 70 75 84 82 80 79
Wind_Speed
4 8 7 8 8 6 5 4 4 2 3 3 3 3 2 2 2 3 6 5 4 5 4 3 5 5 4 4 5 3 4 4 5 4 6 3 2 6 5 4 4 5 4
6 6 7 6 4 5 4 5 5 5 3 2 0 1 1 2 1 2 3 5 6 4 4 4 4 5 4 5 5 4 3 2 4 3 2 4 5 6 5 4 4 6 4
9 6 6 6 5 5 4 5 5 5 4 4 2 3 3 3 4 4 3 5 6 5 5 5 5 5 4 4 4 4 4 3 3 5 2 4 2 6 3 6 4 8 5
6 6 6 5 5 3 4 5 5 5 4 4 5 4 2 1 1 1 2 4 6 6 6 6 5 5 4 5 3 4 2 2 3 4 3 1 2 3 5 4 4 8 8
9 8 8 7 5 5 4 4 5 4 3 5 5 3 2 0 1 2 5 6 5 6 5 6 5 5 4 4 4 5 4 2 1 1 2 2 3 1 2 5 6 6 7
8 8 7 7 6 4 4 4 5 3 4 4 4 5 3 2 2 2 3 3 3 3 5 5 5 5 4 4 4 3 4 3 2 2 2 1 1 3 2 3 3 4 5
8 8 8 7 6 6 5 4 5 3 3 3 3 3 3 3 2 1 1 3 3 2 5 5 5 4 4 5 4 4 4 4 3 3 3 2 3 2 2 2 3 2 4
7 7 7 7 7 8 7 5 6 4 3 2 1 2 3 1 1 0 0 1 1 3 3 4 5 6 6 5 5 3 3 3 4 5 4 3 3 2 2 2 1 3 2
7 9 8 8 7 7 7 7 5 4 4 3 2 2 2 1 1 2 1 1 2 3 4 4 4 5 5 5 5 3 5 4 4 5 4 3 3 3 2 2 2 3 3
6 7 7 7 7 6 6 5 4 5 4 4 3 3 3 2 2 2 3 2 3 3 5 5 5 6 5 5 5 4 4 5 4 4 6 4 3 4 3 2 2 2 3
8 8 8 8 8 7 7 7 6 5 5 4 3 3 3 3 2 3 4 3 3 3 4 4 4 4 4 5 4 5 4 5 5 5 4 6 5 4 4 3 2 2 2
9 7 8 8 8 8 7 7 6 5 5 4 3 3 4 3 3 3 4 3 4 4 4 5 5 5 5 5 5 6 5 5 6 6 5 6 4 6 4 3 4 2 3
10 8 5 7 8 8 8 7 7 7 5 4 3 3 4 3 4 4 4 4 4 5 5 4 5 5 5 5 5 3 5 6 6 6 6 6 5 5 3 3 4 3 2
8 7 8 7 6 6 7 7 7 7 6 5 4 4 5 5 5 5 4 4 4 5 5 5 6 6 6 5 5 4 5 5 5 6 6 6 6 6 6 4 5 4 4
9 8 8 9 7 4 5 6 5 6 5 5 3 6 6 5 5 5 5 6 5 5 6 6 6 6 5 5 6 5 5 5 6 6 7 6 7 9 8 3 5 3 3
7 8 9 11 9 8 2 3 4 6 5 5 5 5 5 5 5 5 6 6 7 6 6 6 6 7 5 9 11 8 6 6 6 7 7 7 9 9 12 11 11 8 4
6 8 8 7 8 9 8 4 2 1 3 4 5 5 5 6 6 6 6 7 7 6 7 7 7 8 7 13 13 13 5 6 6 7 7 7 6 9 6 10 11 9 10
6 7 7 8 8 7 7 6 6 6 5 5 6 6 6 6 6 6 6 7 5 6 6 7 7 7 8 14 15 15 7 6 8 7 7 7 10 8 7 7 7 7 7
5 4 5 5 7 8 7 6 7 6 6 7 6 6 6 5 5 6 7 7 5 6 6 6 8 8 9 16 17 14 6 7 9 9 7 7 8 15 17 7 8 7 9
2 4 5 3 5 6 6 7 7 7 7 8 8 6 5 5 6 7 8 6 6 8 6 9 8 12 9 16 19 15 5 7 8 7 8 15 12 16 18 8 7 8 12
4 5 5 4 6 6 6 7 7 7 8 7 6 6 7 7 7 7 6 8 9 8 9 9 10 8 10 11 20 20 10 7 8 7 7 6 15 16 15 16 6 11 8
4 5 4 5 6 6 6 7 7 9 8 9 8 8 8 8 7 7 9 9 8 9 10 10 9 8 9 15 16 19 18 16 7 8 6 7 16 18 18 15 17 19 14
5 5 5 7 7 7 6 8 10 8 11 9 10 10 10 10 9 7 10 8 9 7 9 8 8 9 7 6 16 20 18 16 9 5 8 15 17 19 16 20 21 19 8
6 5 6 7 8 8 8 8 10 10 10 12 11 8 7 10 9 8 8 8 8 8 8 9 8 8 7 6 5 6 6 11 9 9 7 11 16 18 15 12 10 5 5
6 6 7 7 10 9 10 9 11 8 10 11 10 10 9 10 11 10 10 9 10 9 10 10 8 9 9 11 16 14 9 7 9 13 8 7 6 7 9 9 8 7 6
7 7 8 8 11 10 11 11 9 7 9 11 10 10 9 10 9 9 10 16 19 21 22 24 18 12 18 22 22 22 21 22 23 11 9 9 10 12 11 9 10 8 10
Wind_Direction
126 106 101 105 107 109 115 138 118 46 55 27 16 22 2 334 1 3 2 6 355 355 360 357 348 347 350 327 335 326 340 331 349 341 325 337 40 39 14 7 11 330 338
112 105 108 96 86 122 119 93 82 66 58 69 57 148 253 298 313 344 349 345 359 1 6 6 345 344 343 346 347 352 334 324 5 350 304 356 334 353 333 358 352 8 338
146 142 133 127 119 105 110 98 87 80 64 48 37 14 22 15 13 359 352 347 11 12 21 16 4 348 353 337 338 354 18 328 323 355 267 355 342 327 319 336 0 352 345
142 153 152 143 143 131 114 107 94 90 72 60 67 81 112 58 315 329 334 357 8 17 34 16 3 353 345 349 334 355 335 6 334 335 12 38 256 321 321 342 346 356 333
154 157 154 152 160 139 140 128 108 92 85 83 94 93 79 65 323 7 16 358 357 16 15 4 358 353 353 346 350 346 347 328 304 286 319 313 308 219 273 304 327 320 322
144 142 147 146 147 160 151 146 133 111 93 94 98 117 117 92 52 11 12 350 348 349 352 350 349 338 339 343 329 321 330 315 300 287 284 244 280 301 287 291 306 300 308
155 158 163 171 174 177 180 157 144 135 129 135 135 137 120 108 119 77 13 5 344 333 334 346 347 339 334 336 337 336 331 317 306 288 275 251 249 236 252 269 292 302 297
165 174 185 188 192 188 186 172 162 173 167 164 170 145 123 136 167 67 52 334 297 291 310 343 349 345 344 343 346 330 324 329 321 310 296 277 280 266 232 233 241 314 298
187 195 200 199 192 183 188 181 181 190 190 198 186 169 160 151 256 316 322 297 300 298 327 334 341 338 340 351 355 350 338 343 334 318 314 296 283 276 263 245 201 186 290
213 211 206 193 197 192 188 184 192 199 209 207 199 202 211 212 242 262 259 268 291 314 325 327 331 335 341 351 2 348 340 358 337 330 337 328 307 310 295 272 256 214 202
222 210 204 200 193 187 183 193 201 209 210 206 211 212 240 255 280 290 278 277 288 303 312 313 313 325 334 342 350 340 336 344 330 324 325 317 318 316 316 297 268 259 198
259 218 204 197 192 190 190 195 200 211 217 207 208 233 241 260 276 279 287 303 310 314 312 320 324 328 333 338 339 330 332 332 326 313 317 305 316 318 315 316 296 261 262
24 18 325 247 205 195 189 193 194 200 190 191 216 259 265 260 257 271 284 299 300 298 308 317 316 316 316 318 317 300 321 319 311 306 302 294 304 301 299 303 299 282 278
22 7 357 327 246 215 197 191 194 184 179 187 221 255 265 260 251 261 273 282 286 293 300 297 294 293 298 290 298 283 304 307 302 301 299 291 282 275 284 284 289 291 302
25 9 356 352 359 278 229 193 186 179 178 186 230 259 268 267 273 283 289 287 285 282 287 292 294 289 288 274 280 264 276 293 298 295 295 289 274 269 258 241 263 270 275
19 9 10 10 3 358 292 277 194 198 184 195 231 262 278 278 276 279 278 282 282 284 285 285 277 284 277 274 280 275 259 263 269 287 290 286 288 286 284 278 261 228 226
24 14 6 3 2 2 352 349 275 279 217 233 256 265 270 270 271 270 277 274 271 267 276 276 274 272 273 278 277 276 254 256 254 257 272 286 274 270 269 276 278 274 273
18 8 1 353 354 348 358 360 5 355 342 312 292 280 264 267 264 266 271 278 275 274 271 271 268 267 271 275 278 278 266 253 256 250 249 254 278 265 257 249 252 249 250
12 1 351 347 347 355 354 353 348 340 330 320 308 289 273 275 286 283 277 273 270 273 261 257 268 260 267 270 273 276 257 250 255 259 243 240 252 270 280 244 247 257 264
2 340 338 338 341 322 336 336 323 326 316 310 306 306 294 283 284 276 273 262 248 257 254 263 254 258 265 272 279 279 246 250 259 260 248 262 263 276 284 269 232 247 259
359 354 352 327 308 317 329 316 307 296 274 271 275 280 270 260 254 258 260 268 269 267 268 265 270 258 260 271 280 283 277 253 259 251 261 259 270 279 282 286 252 242 249
337 327 324 313 302 303 306 292 287 282 282 276 272 265 258 260 266 258 271 274 271 269 271 272 274 269 262 264 272 277 276 273 252 253 247 248 266 272 278 282 277 281 262
311 314 307 301 297 292 285 287 289 285 289 281 280 274 271 266 259 255 264 272 267 262 272 267 270 274 272 254 268 278 284 292 294 290 259 266 268 267 272 275 280 283 270
275 260 282 284 282 274 274 255 277 282 287 288 286 280 266 272 266 264 258 253 260 269 271 272 268 268 269 267 265 267 284 289 287 282 277 277 278 269 265 274 276 264 242
262 259 260 264 269 273 269 270 274 277 282 287 288 286 281 280 280 274 265 258 258 255 270 270 267 267 269 268 269 268 267 262 258 275 271 269 264 262 267 262 254 247 248
254 266 263 260 273 277 276 277 272 264 273 282 285 278 278 278 277 276 276 265 266 272 272 275 273 275 277 281 282 283 283 282 282 276 265 263 266 270 268 262 266 260 257